Regional Weather Roundup
Issued by NWS Little Rock, AR

Home | Current Version | Previous Version | Graphics & Text | Print | Product List | Glossary On
Versions: 1 2 3 4 5 6 7 8 9 10 11 12 13 14 15 16 17 18 19 20 21 22 23 24 25 26 27 28 29 30 31 32 33 34 35 36 37 38 39 40 41 42 43 44 45 46 47 48 49 50
640
ASUS44 KLZK 182205
RWRLZK

WEATHER ROUNDUP FOR ARKANSAS
NATIONAL WEATHER SERVICE LITTLE ROCK AR
400 PM CST SAT NOV 18 2017

NOTE: "FAIR" INDICATES FEW OR NO CLOUDS BELOW 12,000 FEET WITH NO
SIGNIFICANT WEATHER AND/OR OBSTRUCTIONS TO VISIBILITY.

ARZ001-003-010-029-182300-
NORTHWEST ARKANSAS

CITY           SKY/WX    TMP DP  RH WIND       PRES   REMARKS
FAYETTEVILLE   CLOUDY    46  36  68 NW9       30.03S
FORT SMITH     PTSUNNY   52  38  58 NW25G32   30.07R
HARRISON       CLOUDY    45  39  79 NW13G21   29.97R
BENTONVILLE    CLOUDY    47  33  58 NW15      30.05R
ROGERS         LGT RAIN  46  33  60 NW16G22   30.03R
SILOAM SPGS    CLOUDY    47  35  63 NW13      30.05S
HIGHFILL       CLOUDY    47  35  63 NW12      30.04R
SPRINGDALE     PTSUNNY   46  36  66 NW8       30.04S
$$

ARZ004-005-016-182300-
NORTH CENTRAL ARKANSAS

CITY           SKY/WX    TMP DP  RH WIND       PRES   REMARKS
BATESVILLE     CLOUDY    52  36  54 NW15G31   29.89R
FLIPPIN        CLOUDY    48  38  68 NW16G24   29.96R
MTN HOME       CLOUDY    47  39  74 N12G21    29.92R
$$

ARZ040-041-182300-
WEST CENTRAL ARKANSAS

CITY           SKY/WX    TMP DP  RH WIND       PRES   REMARKS
MENA           CLOUDY    52  41  66 NW12G22   30.03R
MOUNT IDA      CLOUDY    53  40  61 N10G31    29.98R
$$

ARZ009-017-025-026-028-182300-
NORTHEAST ARKANSAS

CITY           SKY/WX    TMP DP  RH WIND       PRES   REMARKS
JONESBORO      CLOUDY    54  41  61 NW23G46   29.78R
NEWPORT        CLOUDY    53  38  56 NW32G52   29.84R
WALNUT RIDGE   CLOUDY    52  39  61 NW29G44   29.82R
BLYTHEVILLE    CLOUDY    53  45  74 NW35G46   29.74R
$$

ARZ022-023-033-042-044-182300-
CENTRAL ARKANSAS

CITY           SKY/WX    TMP DP  RH WIND       PRES   REMARKS
LITTLE ROCK    CLOUDY    56  42  59 NW30G40   29.91R
N LITTLE ROCK    N/A     53  41  62 N17G33    29.93R
JACKSONVILLE   CLOUDY    55  39  55 NW17G30   29.90R
SEARCY         CLOUDY    54  40  59 NW21G40   29.89R
HOT SPRINGS    CLOUDY    56  41  57 NW14G32   29.96R
RUSSELLVILLE   CLOUDY    53  37  54 NW18G26   29.98R
CLINTON        CLOUDY    52  37  58 NW29G45   29.93R
$$

ARZ036-182300-
EAST ARKANSAS

CITY           SKY/WX    TMP DP  RH WIND       PRES   REMARKS
WEST MEMPHIS   MOCLDY    58  46  64 NW17G36   29.75R
$$

ARZ050-053-066-070-073-182300-
SOUTHWEST ARKANSAS

CITY           SKY/WX    TMP DP  RH WIND       PRES   REMARKS
ARKADELPHIA    CLOUDY    58  41  53 NW22G35   29.96
CAMDEN         MOSUNNY   63  41  45 NW18G25   29.92R
TEXARKANA      CLOUDY    59  42  53 N20G35    29.99R
EL DORADO      LGT RAIN  64  48  56 NW17G33   29.92R
DE QUEEN       LGT RAIN  55  41  59 N14G28    30.02R
$$

ARZ056-057-069-182300-
SOUTHEAST ARKANSAS

CITY           SKY/WX    TMP DP  RH WIND       PRES   REMARKS
PINE BLUFF     PTSUNNY   60  42  51 NW29G45   29.87R
STUTTGART      PTSUNNY   57  43  59 NW29G46   29.85R
MONTICELLO     MOSUNNY   65  47  52 NW14G33   29.83R

$$






USA.gov is the U.S. government's official web portal to all federal, state and local government web resources and services.